{"data":{"norad_id":58674,"epoch":"2026-09-20T21:47:50.028288Z","epoch_age_seconds":114522,"freshness":"FRESH","line1":"1 58674U 23211H   26263.90821792 -.00000108  00000+0  56219-5 0  9993","line2":"2 58674  43.0061  62.5369 0002286 263.5125  96.5467 15.27580737152324","mean_motion":15.27580737,"eccentricity":0.0002286,"inclination_deg":43.0061,"raan_deg":62.5369,"arg_perigee_deg":263.5125,"mean_anomaly_deg":96.5467,"bstar":5.6219e-6,"rev_number":15232,"period_min":94.266703233506,"perigee_km":481.47842256034,"apogee_km":484.61535583448,"semimajor_km":6861.1838891974,"source":"CELESTRAK","updated_at":"2026-09-21T09:00:33.943246Z"}}